| time (UTC) | temp F | wind direction | speed MPH | gust MPH | rain 1hr in | rain 24hr in | rain mn in | humidity % | barometer mb |
| 20260906074545 | 78 | 205 | 6.0 | 8.0 | 0.00 | 0.00 | 0.00 | 54 | 1007.5 |
| 20260906073043 | 78 | 169 | 5.0 | 11.0 | 0.00 | 0.00 | 0.00 | 53 | 1007.3 |
| 20260906071537 | 79 | 194 | 6.0 | 12.0 | 0.00 | 0.00 | 0.00 | 52 | 1007.2 |
| 20260906070036 | 79 | 170 | 8.0 | 17.0 | 0.00 | 0.00 | 0.00 | 52 | 1007.3 |
| 20260906064537 | 78 | 163 | 7.0 | 12.0 | 0.00 | 0.00 | 0.00 | 53 | 1007.5 |
| 20260906063031 | 79 | 153 | 6.0 | 12.0 | 0.00 | 0.00 | 0.00 | 52 | 1007.5 |
| 20260906061527 | 80 | 169 | 6.0 | 15.0 | 0.00 | 0.00 | 0.00 | 50 | 1007.4 |
| 20260906060027 | 80 | 147 | 8.0 | 14.0 | 0.00 | 0.00 | 0.00 | 50 | 1007.4 |
| 20260906054524 | 81 | 165 | 7.0 | 13.0 | 0.00 | 0.00 | 0.00 | 48 | 1007.4 |
| 20260906053023 | 82 | 134 | 7.0 | 17.0 | 0.00 | 0.00 | 0.00 | 47 | 1007.4 |
| 20260906051518 | 82 | 360 | 9.0 | 23.0 | 0.00 | 0.00 | 0.00 | 46 | 1007.3 |
| 20260906050016 | 83 | 140 | 11.0 | 19.0 | 0.00 | 0.00 | 0.00 | 46 | 1007.3 |
| 20260906044515 | 83 | 146 | 7.0 | 14.0 | 0.00 | 0.00 | 0.00 | 45 | 1007.3 |
| 20260906043014 | 84 | 360 | 7.0 | 18.0 | 0.00 | 0.00 | 0.00 | 44 | 1007.3 |
| 20260906041520 | 84 | 165 | 10.0 | 15.0 | 0.00 | 0.00 | 0.00 | 44 | 1007.4 |
| 20260906040025 | 85 | 150 | 10.0 | 19.0 | 0.00 | 0.00 | 0.00 | 42 | 1007.4 |
| 20260906034513 | 85 | 360 | 8.0 | 17.0 | 0.00 | 0.00 | 0.00 | 42 | 1007.3 |
| 20260906033012 | 84 | 360 | 6.0 | 13.0 | 0.00 | 0.00 | 0.00 | 44 | 1007.2 |
| 20260906031516 | 84 | 175 | 7.0 | 13.0 | 0.00 | 0.00 | 0.00 | 45 | 1006.9 |
| 20260906030011 | 86 | 142 | 7.0 | 14.0 | 0.00 | 0.00 | 0.00 | 41 | 1006.5 |
| 20260906024510 | 87 | 176 | 7.0 | 13.0 | 0.00 | 0.00 | 0.00 | 41 | 1006.2 |
| 20260906023009 | 87 | 360 | 9.0 | 17.0 | 0.00 | 0.00 | 0.00 | 40 | 1005.9 |
| 20260906021509 | 87 | 159 | 9.0 | 16.0 | 0.00 | 0.00 | 0.00 | 41 | 1005.9 |
| 20260906020010 | 85 | 169 | 8.0 | 16.0 | 0.00 | 0.00 | 0.00 | 45 | 1005.6 |
| 20260906014511 | 87 | 133 | 6.0 | 14.0 | 0.00 | 0.00 | 0.00 | 42 | 1005.1 |
| 20260906013009 | 87 | 175 | 8.0 | 14.0 | 0.00 | 0.00 | 0.00 | 40 | 1004.8 |
| 20260906011506 | 88 | 183 | 7.0 | 15.0 | 0.00 | 0.00 | 0.00 | 40 | 1005.0 |
| 20260906010006 | 90 | 165 | 6.0 | 16.0 | 0.00 | 0.00 | 0.00 | 37 | 1005.1 |
| 20260906004505 | 91 | 165 | 5.0 | 13.0 | 0.00 | 0.00 | 0.00 | 36 | 1005.0 |
| 20260906003005 | 92 | 360 | 9.0 | 17.0 | 0.00 | 0.00 | 0.00 | 36 | 1004.9 |
| 20260906001505 | 92 | 139 | 6.0 | 12.0 | 0.00 | 0.00 | 0.00 | 33 | 1004.7 |
| 20260906000004 | 93 | 172 | 8.0 | 13.0 | 0.00 | 0.00 | 0.00 | 33 | 1004.5 |
| 20260905234503 | 93 | 171 | 9.0 | 14.0 | 0.00 | 0.00 | 0.00 | 33 | 1004.3 |
| 20260905233002 | 93 | 164 | 7.0 | 15.0 | 0.00 | 0.00 | 0.00 | 32 | 1004.1 |
| 20260905231504 | 93 | 181 | 10.0 | 17.0 | 0.00 | 0.00 | 0.00 | 32 | 1003.9 |
| 20260905230002 | 93 | 167 | 6.0 | 13.0 | 0.00 | 0.00 | 0.00 | 32 | 1003.9 |
| 20260905224501 | 94 | 153 | 7.0 | 14.0 | 0.00 | 0.00 | 0.00 | 32 | 1004.0 |
| 20260905223100 | 94 | 120 | 8.0 | 19.0 | 0.00 | 0.00 | 0.00 | 33 | 1003.9 |
| 20260905221621 | 94 | 195 | 7.0 | 14.0 | 0.00 | 0.00 | 0.00 | 31 | 1003.9 |
| 20260905220059 | 95 | 360 | 10.0 | 18.0 | 0.00 | 0.00 | 0.00 | 30 | 1004.0 |
| 20260905214605 | 94 | 360 | 8.0 | 16.0 | 0.00 | 0.00 | 0.00 | 30 | 1004.2 |
| 20260905213055 | 95 | 173 | 7.0 | 26.0 | 0.00 | 0.00 | 0.00 | 29 | 1004.3 |
| 20260905211554 | 96 | 360 | 12.0 | 20.0 | 0.00 | 0.00 | 0.00 | 30 | 1004.5 |
| 20260905210104 | 95 | 136 | 13.0 | 19.0 | 0.00 | 0.00 | 0.00 | 30 | 1004.6 |
| 20260905204550 | 95 | 360 | 8.0 | 16.0 | 0.00 | 0.00 | 0.00 | 30 | 1004.8 |
| 20260905203047 | 95 | 142 | 8.0 | 20.0 | 0.00 | 0.00 | 0.00 | 31 | 1005.1 |
| 20260905201546 | 94 | 360 | 11.0 | 18.0 | 0.00 | 0.00 | 0.00 | 31 | 1005.2 |
| 20260905200050 | 95 | 163 | 7.0 | 18.0 | 0.00 | 0.00 | 0.00 | 32 | 1005.5 |
| 20260905194546 | 96 | 360 | 10.0 | 20.0 | 0.00 | 0.00 | 0.00 | 30 | 1005.6 |
| 20260905193044 | 96 | 126 | 11.0 | 21.0 | 0.00 | 0.00 | 0.00 | 31 | 1005.8 |
| 20260905191539 | 95 | 196 | 13.0 | 20.0 | 0.00 | 0.00 | 0.00 | 32 | 1006.0 |
| 20260905190044 | 94 | 360 | 11.0 | 20.0 | 0.00 | 0.00 | 0.00 | 33 | 1006.0 |
| 20260905184535 | 93 | 182 | 13.0 | 18.0 | 0.00 | 0.00 | 0.00 | 33 | 1006.2 |
| 20260905183031 | 93 | 198 | 13.0 | 18.0 | 0.00 | 0.00 | 0.00 | 34 | 1006.5 |
| 20260905181533 | 92 | 146 | 12.0 | 20.0 | 0.00 | 0.00 | 0.00 | 35 | 1006.7 |
| 20260905180039 | 91 | 211 | 11.0 | 20.0 | 0.00 | 0.00 | 0.00 | 38 | 1006.8 |
| 20260905174526 | 91 | 153 | 13.0 | 22.0 | 0.00 | 0.00 | 0.00 | 39 | 1006.9 |
| 20260905173022 | 89 | 180 | 10.0 | 22.0 | 0.00 | 0.00 | 0.00 | 42 | 1007.1 |
| 20260905171523 | 89 | 187 | 12.0 | 18.0 | 0.00 | 0.00 | 0.00 | 42 | 1007.1 |
| 20260905170020 | 88 | 205 | 11.0 | 22.0 | 0.00 | 0.00 | 0.00 | 45 | 1007.3 |
| 20260905164515 | 87 | 175 | 8.0 | 17.0 | 0.00 | 0.00 | 0.00 | 48 | 1007.1 |
| 20260905163011 | 85 | 139 | 9.0 | 17.0 | 0.00 | 0.00 | 0.00 | 50 | 1007.2 |
| 20260905161518 | 84 | 167 | 11.0 | 19.0 | 0.00 | 0.00 | 0.00 | 52 | 1007.2 |
| 20260905160007 | 82 | 157 | 11.0 | 17.0 | 0.00 | 0.00 | 0.00 | 57 | 1007.2 |
| 20260905154505 | 80 | 154 | 13.0 | 22.0 | 0.00 | 0.00 | 0.00 | 59 | 1007.1 |
| 20260905153003 | 79 | 207 | 14.0 | 19.0 | 0.00 | 0.00 | 0.00 | 61 | 1007.3 |
| 20260905151503 | 78 | 159 | 11.0 | 21.0 | 0.00 | 0.00 | 0.00 | 63 | 1007.3 |
| 20260905150004 | 77 | 169 | 13.0 | 24.0 | 0.00 | 0.00 | 0.00 | 64 | 1007.5 |
| 20260905144502 | 76 | 177 | 10.0 | 20.0 | 0.00 | 0.00 | 0.00 | 66 | 1007.4 |
| 20260905143003 | 76 | 177 | 12.0 | 19.0 | 0.00 | 0.00 | 0.00 | 67 | 1007.5 |
| 20260905141601 | 75 | 153 | 10.0 | 18.0 | 0.00 | 0.00 | 0.00 | 68 | 1007.6 |
| 20260905134604 | 74 | 360 | 10.0 | 15.0 | 0.00 | 0.00 | 0.00 | 69 | 1007.8 |
| 20260905134501 | 74 | 153 | 10.0 | 15.0 | 0.00 | 0.00 | 0.00 | 70 | 1007.8 |
| 20260905133057 | 73 | 162 | 8.0 | 11.0 | 0.00 | 0.00 | 0.00 | 71 | 1007.8 |
| 20260905131555 | 73 | 360 | 5.0 | 11.0 | 0.00 | 0.00 | 0.00 | 71 | 1007.6 |
| 20260905130055 | 73 | 360 | 6.0 | 9.0 | 0.00 | 0.00 | 0.00 | 72 | 1007.5 |
| 20260905124556 | 72 | 138 | 4.0 | 8.0 | 0.00 | 0.00 | 0.00 | 72 | 1007.5 |
| 20260905123050 | 72 | 139 | 5.0 | 8.0 | 0.00 | 0.00 | 0.00 | 72 | 1007.2 |
| 20260905121549 | 72 | 131 | 4.0 | 8.0 | 0.00 | 0.00 | 0.00 | 71 | 1007.1 |
| 20260905120058 | 73 | 134 | 6.0 | 10.0 | 0.00 | 0.00 | 0.00 | 70 | 1006.8 |
| 20260905114559 | 73 | 123 | 5.0 | 9.0 | 0.00 | 0.00 | 0.00 | 70 | 1006.8 |
| 20260905113054 | 72 | 140 | 4.0 | 5.0 | 0.00 | 0.00 | 0.00 | 71 | 1006.9 |
| 20260905111632 | 72 | 139 | 3.0 | 5.0 | 0.00 | 0.00 | 0.00 | 71 | 1006.8 |
| 20260905110042 | 72 | 143 | 2.0 | 7.0 | 0.00 | 0.00 | 0.00 | 70 | 1006.7 |
| 20260905104541 | 73 | 183 | 5.0 | 10.0 | 0.00 | 0.00 | 0.00 | 69 | 1006.5 |
| 20260905103039 | 73 | 180 | 7.0 | 12.0 | 0.00 | 0.00 | 0.00 | 68 | 1006.4 |
| 20260905101536 | 74 | 175 | 8.0 | 16.0 | 0.00 | 0.00 | 0.00 | 67 | 1006.4 |
| 20260905100033 | 74 | 200 | 9.0 | 14.0 | 0.00 | 0.00 | 0.00 | 66 | 1006.6 |
| 20260905094532 | 75 | 153 | 8.0 | 15.0 | 0.00 | 0.00 | 0.00 | 64 | 1006.5 |
| 20260905093031 | 75 | 194 | 8.0 | 16.0 | 0.00 | 0.00 | 0.00 | 64 | 1006.6 |
| 20260905091530 | 75 | 360 | 11.0 | 16.0 | 0.00 | 0.00 | 0.00 | 64 | 1006.6 |
| 20260905090029 | 75 | 178 | 9.0 | 16.0 | 0.00 | 0.00 | 0.00 | 63 | 1006.7 |
| 20260905084532 | 75 | 194 | 8.0 | 15.0 | 0.00 | 0.00 | 0.00 | 63 | 1006.7 |
| 20260905083026 | 75 | 178 | 8.0 | 16.0 | 0.00 | 0.00 | 0.00 | 63 | 1006.8 |
| 20260905081525 | 75 | 182 | 10.0 | 16.0 | 0.00 | 0.00 | 0.00 | 62 | 1006.7 |
| 20260905080030 | 76 | 192 | 10.0 | 13.0 | 0.00 | 0.00 | 0.00 | 61 | 1006.7 |